[[{"header":{"parameterUnit":"m.s-1","parameterCategory":1,"la1":30.2991,"la2":30.254,"lo1":-89.0895,"lo2":-89.0444,"dy":0.0017,"dx":0.0017,"nx":28,"ny":28,"refTime":"2025-11-14T09:00:00:Z","depth":0,"parameterNumber":2,"parameterNumberName":"U-component_of_WINDS"},"data":[0,0,0,0,0,0,0,0,0,0,0,0,0,0,0,0,0,0,0,0,0,0,0,0,0,0,0,0,0,0,0,0,0,0,0,0,0,0,0,0,0,0,0,0,0,0,0,0,0,0,0,0,0,0,0,0,0,0,-0.2325,-0.2325,0,-0.2339,-0.2339,-0.2339,-0.2366,-0.2366,-0.2367,-0.2367,-0.2382,-0.2382,-0.2382,0,0,0,0,0,0,0,0,0,0,0,0,0,-0.232,-0.232,-0.2325,-0.2325,-0.2325,-0.2339,-0.2339,-0.2339,-0.2365,-0.2366,-0.2367,-0.2367,-0.2382,-0.2382,-0.2382,0,0,0,0,0,0,0,0,0,0,0,0,0,-0.2327,-0.232,-0.2325,-0.234,-0.2341,-0.2339,-0.2339,-0.2339,-0.2365,-0.2366,-0.2367,-0.2367,-0.2382,-0.2382,-0.2382,-0.2367,0,0,-0.2382,-0.2382,0,0,0,0,0,0,0,0,-0.2326,-0.2327,-0.2337,-0.2339,-0.234,-0.2351,-0.2343,-0.2349,-0.2365,-0.2356,-0.2367,-0.2368,-0.2371,-0.2372,-0.2373,-0.2367,-0.2368,-0.2382,-0.2382,-0.2382,-0.2382,0,0,0,0,0,0,0,-0.2326,-0.2326,-0.233,-0.2337,-0.2339,-0.2346,-0.2347,-0.2344,-0.2359,-0.2357,-0.2359,-0.236,-0.2372,-0.2373,-0.2374,-0.2368,-0.2382,-0.2382,-0.2382,-0.2382,-0.2348,-0.2347,0,0,0,0,0,0,-0.2323,-0.2326,-0.233,-0.2331,-0.2335,-0.2345,-0.2347,-0.2347,-0.236,-0.2362,-0.236,-0.2361,-0.2373,-0.2374,-0.2374,-0.2355,-0.2382,-0.2382,-0.2382,-0.2349,-0.2348,-0.2347,0,0,0,0,0,0,-0.2323,-0.2323,-0.2329,-0.2329,-0.233,-0.2344,-0.2344,-0.2347,-0.2348,-0.2361,-0.2364,-0.2358,-0.2374,-0.2375,-0.2368,-0.2356,-0.2382,-0.2382,-0.235,-0.2348,-0.2347,-0.2318,0,0,0,0,0,0,-0.2323,-0.2323,-0.2317,-0.2329,-0.233,-0.2322,-0.2343,-0.2347,-0.2348,-0.235,-0.236,-0.2363,-0.2374,-0.2368,-0.2368,-0.2357,-0.2381,-0.2351,-0.2349,-0.2348,-0.232,-0.2316,-0.2312,0,0,0,0,0,-0.2322,-0.2309,-0.2317,-0.2317,-0.2323,-0.2322,-0.2323,-0.2336,-0.2347,-0.2341,-0.2349,-0.2363,-0.2358,-0.2367,-0.2367,-0.2356,-0.2351,-0.235,-0.2348,-0.2322,-0.2316,-0.2312,0,0,0,0,0,0,-0.2297,-0.2311,-0.232,-0.231,-0.2314,-0.2326,-0.2319,-0.233,-0.2332,-0.2335,-0.2351,-0.2353,-0.2344,-0.2349,-0.2359,-0.234,-0.2357,-0.2355,-0.2337,-0.2332,-0.2328,-0.2326,-0.2381,0,0,0,0,0,-0.229,-0.2288,-0.23,-0.229,-0.2292,-0.2305,-0.2305,-0.2315,-0.232,-0.2322,-0.233,-0.2335,-0.2334,-0.2334,-0.2334,-0.2321,-0.2323,-0.2313,-0.2309,-0.2306,-0.2304,-0.2295,-0.2291,-0.234,-0.234,-0.2341,0,0,-0.2276,-0.2283,-0.2281,-0.2285,-0.229,-0.2286,-0.2307,-0.2303,-0.23,-0.2322,-0.2315,-0.2321,-0.2328,-0.2317,-0.2313,-0.2321,-0.229,-0.2304,-0.2301,-0.2301,-0.2293,-0.2288,-0.2284,-0.2339,-0.2339,-0.234,0,0,-0.2248,-0.2254,-0.2246,-0.2249,-0.2256,-0.2265,-0.2262,-0.2272,-0.2277,-0.227,-0.2286,-0.2283,-0.2283,-0.2286,-0.2287,-0.2259,-0.2271,-0.2259,-0.2238,-0.223,-0.2226,-0.2222,-0.221,-0.2206,-0.2257,-0.2257,-0.2257,0,-0.223,-0.2226,-0.224,-0.2234,-0.2235,-0.2254,-0.2244,-0.2248,-0.2254,-0.2254,-0.2263,-0.2261,-0.2267,-0.2256,-0.2249,-0.2251,-0.2248,-0.2257,-0.2225,-0.2222,-0.2219,-0.2207,-0.2203,-0.2255,-0.2255,-0.2255,-0.2256,0,-0.2202,-0.2198,-0.2191,-0.2195,-0.2195,-0.2188,-0.22,-0.2199,-0.2208,-0.2215,-0.2208,-0.2215,-0.2216,-0.2215,-0.2225,-0.2205,-0.221,-0.2222,-0.2239,-0.2212,-0.2202,-0.2198,-0.2253,-0.2253,-0.2254,-0.2254,0,0,-0.2159,-0.217,-0.2167,-0.2168,-0.2176,-0.2173,-0.2166,-0.2167,-0.2164,-0.2168,-0.2162,-0.216,-0.217,-0.2172,-0.2182,-0.2175,-0.215,-0.2188,-0.2188,-0.2179,-0.2126,-0.2116,-0.211,-0.2158,-0.2157,-0.2157,-0.2125,0,-0.2131,-0.212,-0.2131,-0.2117,-0.2113,-0.213,-0.2124,-0.2128,-0.2134,-0.2132,-0.2139,-0.2137,-0.2152,-0.2153,-0.2147,-0.2154,-0.2139,-0.2157,-0.2151,-0.2151,-0.2147,-0.2105,-0.2095,-0.2064,-0.2121,-0.2121,-0.212,0,-0.2098,-0.2099,-0.2083,-0.209,-0.2089,-0.2083,-0.2084,-0.2081,-0.2086,-0.2091,-0.2092,-0.2104,-0.2096,-0.2113,-0.2103,-0.2115,-0.2113,-0.2116,-0.2116,-0.2114,-0.2133,-0.2101,-0.2055,-0.205,-0.2114,-0.2115,-0.2115,0,-0.2065,-0.2063,-0.2053,-0.2054,-0.2062,-0.2057,-0.2061,-0.2066,-0.2065,-0.2065,-0.2064,-0.2064,-0.2064,-0.2064,-0.2075,-0.2086,-0.2062,-0.2081,-0.2065,-0.2065,-0.2058,-0.2058,-0.201,-0.206,-0.206,-0.206,-0.206,0,-0.2033,-0.2022,-0.2038,-0.2032,-0.202,-0.2034,-0.2022,-0.2027,-0.2031,-0.2026,-0.2041,-0.2036,-0.2052,-0.2048,-0.2057,-0.2045,-0.2046,-0.2049,-0.2051,-0.2046,-0.2046,-0.2045,-0.2046,-0.2059,-0.2059,-0.206,-0.206,0,-0.1994,-0.2005,-0.1994,-0.2003,-0.2004,-0.1995,-0.2002,-0.1996,-0.2004,-0.1996,-0.1995,-0.2007,-0.2003,-0.2014,-0.2012,-0.2018,-0.2001,-0.2008,-0.1999,-0.2,-0.1984,-0.1984,-0.1931,-0.1924,-0.1981,-0.198,-0.198,0,-0.1972,-0.1964,-0.1971,-0.1968,-0.197,-0.1966,-0.1964,-0.1978,-0.1975,-0.1978,-0.1972,-0.1969,-0.1967,-0.1959,-0.1967,-0.1965,-0.1971,-0.1952,-0.1971,-0.1966,-0.1968,-0.1968,-0.1966,-0.1948,-0.1947,-0.1947,-0.1946,0,-0.1931,-0.1936,-0.1933,-0.1931,-0.1929,-0.1928,-0.1929,-0.1926,-0.194,-0.1936,-0.1932,-0.193,-0.1927,-0.1923,-0.1923,-0.1926,-0.1938,-0.1941,-0.1937,-0.1931,-0.1926,-0.1926,-0.1987,-0.1942,-0.1942,-0.1942,-0.1943,-0.1943,-0.1898,-0.1891,-0.1894,-0.189,-0.1892,-0.1892,-0.1886,-0.1892,-0.1888,-0.1886,-0.1894,-0.1887,-0.1891,-0.1891,-0.1893,-0.1887,-0.1896,-0.189,-0.1889,-0.1887,-0.1883,-0.1928,-0.1887,-0.1888,-0.1888,-0.1888,-0.1888,0,-0.1856,-0.1859,-0.1855,-0.1854,-0.1851,-0.1862,-0.1863,-0.1859,-0.1852,-0.1854,-0.1852,-0.1845,-0.1841,-0.1848,-0.1845,-0.184,-0.1845,-0.1838,-0.1838,-0.1838,-0.1877,-0.1879,-0.1834,-0.1834,-0.1834,-0.1834,-0.1834,-0.1834,-0.1834,-0.1821,-0.1827,-0.1815,-0.1818,-0.1811,-0.181,-0.1809,-0.181,-0.1802,-0.1799,-0.1803,-0.1807,-0.1804,-0.18,-0.1803,-0.18,-0.1791,-0.1795,-0.183,-0.1836,-0.1841,-0.1843,-0.1791,-0.1791,-0.1756,-0.1756,-0.1756]},{"header":{"parameterUnit":"m.s-1","parameterCategory":1,"la1":30.2991,"la2":30.254,"lo1":-89.0895,"lo2":-89.0444,"dy":0.0017,"dx":0.0017,"nx":28,"ny":28,"refTime":"2025-11-14T09:00:00:Z","depth":0,"parameterNumber":3,"parameterNumberName":"V-component_of_WINDS"},"data":[0,0,0,0,0,0,0,0,0,0,0,0,0,0,0,0,0,0,0,0,0,0,0,0,0,0,0,0,0,0,0,0,0,0,0,0,0,0,0,0,0,0,0,0,0,0,0,0,0,0,0,0,0,0,0,0,0,0,-0.0273,-0.0273,0,-0.0219,-0.0219,-0.0218,-0.0209,-0.0209,-0.021,-0.021,-0.0151,-0.0149,-0.0147,0,0,0,0,0,0,0,0,0,0,0,0,0,-0.0364,-0.0363,-0.0274,-0.0273,-0.0272,-0.0219,-0.0219,-0.0218,-0.0209,-0.0209,-0.021,-0.021,-0.0152,-0.0149,-0.0147,0,0,0,0,0,0,0,0,0,0,0,0,0,-0.0319,-0.0362,-0.0274,-0.0261,-0.026,-0.022,-0.0219,-0.0218,-0.0209,-0.0209,-0.021,-0.0211,-0.0153,-0.015,-0.0147,-0.0114,0,0,-0.0137,-0.0136,0,0,0,0,0,0,0,0,-0.0321,-0.0315,-0.0264,-0.0262,-0.026,-0.0222,-0.0229,-0.0183,-0.0208,-0.0228,-0.021,-0.0211,-0.0174,-0.0169,-0.0157,-0.0111,-0.0109,-0.0137,-0.0135,-0.0134,-0.0133,0,0,0,0,0,0,0,-0.0325,-0.0318,-0.0252,-0.0263,-0.0261,-0.0257,-0.0251,-0.022,-0.0197,-0.0226,-0.0225,-0.0219,-0.0173,-0.016,-0.0156,-0.0108,-0.0137,-0.0134,-0.0133,-0.0131,-0.0029,-0.0028,0,0,0,0,0,0,-0.0331,-0.032,-0.0254,-0.025,-0.0293,-0.0255,-0.0248,-0.0233,-0.0198,-0.0193,-0.0219,-0.0219,-0.0165,-0.0159,-0.0154,-0.0111,-0.0134,-0.0131,-0.0129,-0.003,-0.0029,-0.0028,0,0,0,0,0,0,-0.0333,-0.0325,-0.0256,-0.0285,-0.0276,-0.0252,-0.0235,-0.0232,-0.0219,-0.0192,-0.0188,-0.021,-0.0165,-0.0158,-0.0123,-0.0109,-0.013,-0.0127,-0.0031,-0.0029,-0.0028,-0.0027,0,0,0,0,0,0,-0.0335,-0.0325,-0.0314,-0.0285,-0.0275,-0.0228,-0.0235,-0.023,-0.0214,-0.0214,-0.0183,-0.0178,-0.0165,-0.0128,-0.012,-0.0105,-0.0125,-0.0032,-0.003,-0.0029,-0.0028,-0.0025,-0.0023,0,0,0,0,0,-0.0338,-0.0316,-0.0314,-0.0306,-0.026,-0.0227,-0.0221,-0.0208,-0.0213,-0.0201,-0.0183,-0.0179,-0.0112,-0.0125,-0.0116,-0.0099,-0.0033,-0.0031,-0.0029,-0.0029,-0.0026,-0.0023,0,0,0,0,0,0,-0.0343,-0.0312,-0.0309,-0.0277,-0.0255,-0.0226,-0.021,-0.0205,-0.0181,-0.0181,-0.0164,-0.0157,-0.0123,-0.0108,-0.0123,-0.0064,-0.0072,-0.0069,-0.0076,-0.0073,-0.007,-0.0074,-0.0122,0,0,0,0,0,-0.034,-0.0318,-0.0291,-0.0265,-0.0254,-0.0234,-0.0219,-0.021,-0.0187,-0.0177,-0.0157,-0.0133,-0.0106,-0.0088,-0.0062,-0.0026,-0.0017,-0.001,-0.0008,-0.0006,-0.0002,0.0021,0.0025,-0.0021,-0.0021,-0.0021,0,0,-0.0334,-0.0314,-0.0301,-0.0265,-0.0247,-0.0222,-0.0226,-0.02,-0.0181,-0.0173,-0.0139,-0.0123,-0.0095,-0.0058,-0.0041,-0.0045,0.0012,-0.0003,-0.0002,0.0001,0.0023,0.0028,0.0031,-0.0019,-0.002,-0.002,0,0,-0.031,-0.0294,-0.0269,-0.0251,-0.0224,-0.0211,-0.0205,-0.0176,-0.0165,-0.0131,-0.0124,-0.01,-0.0055,-0.0034,-0.0018,0.0016,0.0021,0.0024,0.0037,0.0059,0.0063,0.0066,0.008,0.0085,0.0027,0.0027,0.0027,0,-0.0306,-0.027,-0.0257,-0.0231,-0.0214,-0.0206,-0.018,-0.0162,-0.0128,-0.0115,-0.012,-0.0061,-0.0042,0.0,0.0009,0.0021,0.003,0.0021,0.0061,0.0064,0.0068,0.0081,0.0086,0.0028,0.0028,0.0028,0.0028,0,-0.0265,-0.0239,-0.0222,-0.019,-0.0171,-0.0145,-0.0126,-0.0109,-0.0101,-0.0086,-0.005,-0.0026,0.0006,0.0016,0.0024,0.0061,0.0058,0.0057,0.0049,0.0072,0.0085,0.0091,0.0028,0.0028,0.0028,0.0028,0,0,-0.0243,-0.0202,-0.0196,-0.018,-0.0149,-0.0128,-0.0101,-0.007,-0.0054,-0.003,-0.0005,0.0034,0.0034,0.0053,0.0063,0.0082,0.011,0.0079,0.008,0.0086,0.0155,0.0157,0.0162,0.0114,0.0115,0.0115,0.0153,0,-0.0214,-0.0166,-0.0153,-0.0111,-0.0086,-0.0077,-0.0053,-0.003,-0.0015,0.001,0.0027,0.0056,0.0052,0.0064,0.0083,0.0103,0.0125,0.01,0.0139,0.0141,0.0133,0.0169,0.017,0.0205,0.0159,0.0159,0.016,0,-0.0174,-0.015,-0.0106,-0.0076,-0.0065,-0.0043,-0.0013,0.001,0.0037,0.0047,0.0069,0.0078,0.0109,0.0099,0.0145,0.0128,0.0145,0.0157,0.0159,0.0164,0.0152,0.0177,0.0216,0.0222,0.0168,0.0167,0.0167,0,-0.016,-0.0116,-0.0084,-0.0071,-0.0035,-0.002,-0.0004,0.0022,0.0041,0.0068,0.008,0.0111,0.0128,0.0153,0.0171,0.0162,0.0215,0.0206,0.0226,0.0226,0.0238,0.0237,0.0282,0.0247,0.0246,0.0246,0.0246,0,-0.0129,-0.0102,-0.0077,-0.0057,-0.0025,-0.0009,0.0022,0.0038,0.0062,0.0087,0.0097,0.0121,0.0143,0.017,0.0184,0.0221,0.0228,0.0239,0.0243,0.0239,0.0238,0.0251,0.025,0.0248,0.0247,0.0247,0.0247,0,-0.0108,-0.009,-0.0054,-0.0023,-0.0015,0.0007,0.0035,0.0056,0.0072,0.0103,0.0112,0.0137,0.017,0.019,0.0232,0.0242,0.0283,0.0285,0.0274,0.0276,0.0295,0.0294,0.0352,0.0361,0.0317,0.0318,0.0318,0,-0.0088,-0.0067,-0.0034,-0.0017,-0.0001,0.0026,0.0045,0.0062,0.0082,0.0116,0.0133,0.0167,0.0194,0.0247,0.027,0.0303,0.0307,0.0325,0.0312,0.0308,0.031,0.0309,0.0312,0.0328,0.0328,0.0328,0.0328,0,-0.0055,-0.0047,-0.0021,0.0009,0.0031,0.0056,0.008,0.0094,0.0116,0.0138,0.0172,0.0193,0.0236,0.027,0.0305,0.0324,0.0331,0.0332,0.0339,0.0336,0.0329,0.0335,0.0281,0.0331,0.0331,0.0331,0.0331,0.033,-0.0033,-0.0013,0.0014,0.0044,0.0064,0.0087,0.0109,0.0128,0.0156,0.0191,0.02,0.0236,0.0266,0.0313,0.0333,0.0362,0.036,0.0369,0.0372,0.0374,0.0376,0.0323,0.0368,0.0368,0.0368,0.0368,0.0368,0,0.0003,0.0021,0.0047,0.0082,0.0106,0.0109,0.0137,0.0158,0.0188,0.0215,0.0242,0.0282,0.0315,0.0341,0.0376,0.0395,0.04,0.0404,0.0404,0.0408,0.0375,0.0366,0.04,0.04,0.04,0.04,0.04,0.04,0.0024,0.0058,0.007,0.0116,0.0134,0.0169,0.0185,0.0207,0.0229,0.0272,0.03,0.0316,0.0344,0.0381,0.0413,0.042,0.0433,0.0438,0.0446,0.0414,0.041,0.0407,0.0399,0.044,0.044,0.0477,0.0478,0.0478]}]]